2018-112E (43913 NORAD) Tracking and Keplerian Element Data

This shows tracking and keplerian element data for the satellite.

Feedback or suggestion? Click here.




ElementValue
Catalog43913
Name2018-112E
Epoch Orbit248
Epoch Day16.80902253
Epoch Year2019
RAAN117.3288
Inclination50.0088
Eccentricity0.0005106
Argument of Perigee302.3314
Mean Anonmoly57.7064
Mean Motion13.43965995
Decay Rate-9E-07
L11 43913U 18112E 19016.80902253 -.00000090 00000-0 66930-4 0 9997
L22 43913 50.0088 117.3288 0005106 302.3314 57.7064 13.43965995 2488

Live tracking and technical data element details for 2018-112E (NORAD 43913). 2018-112E can be tracked NOW for your location showing map with azimuth and elevation plus other details from your city location.

Track the satellite on the map from your city or location and see movement details for azimuth, elevation, latitude, longitude, range, height, and movement on the map or in text.







IsCatalogInMostPopularTable: catalog: 43913, numindb: 11
Update: records affected: 1



GetName: 43913 2018-112E

Hit Count: updated at: Thu, 17 Jan 2019 14:51:21 GMT